Date String (YYYY-MM-DD hh:mm:ss) UTC,Instrument flags,Ambient pressure (hPa),Sample flow (lpm),Bypass flow (lpm),Sample temperature (°C),Ambient temperature (°C),ASC tube jacket temperature (°C),LED temperature (°C),Box temperature (°C),Sample RH (%),Span deviation,Mass concentration (μg/m³),Mass concentration (μg/m³),Mass concentration (μg/m³)
DateTimeUTC,F1_M11,P_M11,Q1_M11,Q2_M11,T1_M11,T2_M11,T3_M11,T4_M11,T5_M11,U1_M11,ZSPAN_M11,X0_M11,X2_M11,X1_M11
2023-05-27 03:00:00,,0831.0,5.00,0.00,29.9,28.4,00.0,38.2,31.5,28.0,0000.0,0003.24,0001.94,0001.48
2023-05-27 03:01:00,,0830.9,5.00,0.00,29.9,28.4,00.0,38.2,31.5,27.7,0000.0,0003.26,0001.95,0001.47
2023-05-27 03:02:00,,0831.0,5.00,0.00,29.9,28.4,00.0,38.2,31.5,27.8,0000.0,0003.42,0001.93,0001.48
2023-05-27 03:03:00,,0831.0,5.01,0.00,29.9,28.4,00.0,38.2,31.5,27.8,0000.0,0004.36,0001.95,0001.49
2023-05-27 03:04:00,,0831.0,5.00,0.00,29.9,28.4,00.0,38.2,31.5,28.0,0000.0,0004.30,0001.93,0001.49
2023-05-27 03:05:00,,0831.0,5.00,0.00,29.9,28.4,00.0,38.2,31.5,27.9,0000.0,0004.32,0001.95,0001.48
2023-05-27 03:06:00,,0831.0,5.00,0.00,29.9,28.4,00.0,38.3,31.5,28.0,0000.0,0004.14,0001.93,0001.49
2023-05-27 03:07:00,,0831.0,5.00,0.00,29.9,28.4,00.0,38.3,31.5,28.0,0000.0,0004.11,0001.91,0001.49
2023-05-27 03:08:00,,0830.9,5.00,0.00,29.9,28.4,00.0,38.3,31.5,27.8,0000.0,0004.11,0001.90,0001.49
2023-05-27 03:09:00,,0830.9,5.00,0.00,29.9,28.4,00.0,38.3,31.5,27.6,0000.0,0004.31,0001.98,0001.51
2023-05-27 03:10:00,,0830.9,5.00,0.00,29.9,28.4,00.0,38.3,31.5,27.6,0000.0,0004.37,0002.01,0001.53
2023-05-27 03:11:00,,0830.9,5.00,0.00,29.9,28.4,00.0,38.3,31.5,27.7,0000.0,0004.37,0002.02,0001.52
2023-05-27 03:12:00,,0830.9,5.00,0.00,29.9,28.4,00.0,38.3,31.5,27.6,0000.0,0005.38,0002.02,0001.54
2023-05-27 03:13:00,,0830.9,5.00,0.00,29.9,28.3,00.0,38.3,31.5,27.6,0000.0,0006.05,0002.03,0001.53
2023-05-27 03:14:00,,0830.9,5.00,0.00,29.9,28.3,00.0,38.3,31.5,27.7,0000.0,0005.22,0002.01,0001.53
2023-05-27 03:15:00,,0830.9,5.00,0.00,29.9,28.3,00.0,38.3,31.5,27.9,0000.0,0005.45,0002.03,0001.54
2023-05-27 03:16:00,,0831.0,5.01,0.00,29.9,28.3,00.0,38.3,31.5,27.8,0000.0,0005.25,0002.02,0001.55
2023-05-27 03:17:00,,0831.0,5.01,0.00,29.9,28.4,00.0,38.3,31.5,27.9,0000.0,0005.97,0002.03,0001.55
2023-05-27 03:18:00,,0830.9,5.00,0.00,29.9,28.4,00.0,38.3,31.5,27.8,0000.0,0006.42,0002.10,0001.57
2023-05-27 03:19:00,,0830.9,5.00,0.00,30.0,28.4,00.0,38.3,31.6,27.8,0000.0,0006.47,0002.12,0001.59
2023-05-27 03:20:00,,0830.9,5.01,0.00,30.0,28.5,00.0,38.3,31.6,27.9,0000.0,0006.36,0002.08,0001.60
2023-05-27 03:21:00,,0830.9,5.00,0.00,30.0,28.5,00.0,38.3,31.6,27.9,0000.0,0006.44,0002.12,0001.61
2023-05-27 03:22:00,,0830.9,5.00,0.00,30.0,28.5,00.0,38.4,31.6,28.2,0000.0,0006.47,0002.15,0001.63
2023-05-27 03:23:00,,0831.0,5.00,0.00,30.0,28.5,00.0,38.4,31.6,28.3,0000.0,0005.50,0002.16,0001.65
2023-05-27 03:24:00,,0831.0,5.00,0.00,30.0,28.5,00.0,38.4,31.6,28.5,0000.0,0004.97,0002.15,0001.66
2023-05-27 03:25:00,,0831.1,5.00,0.00,30.0,28.5,00.0,38.4,31.6,28.7,0000.0,0004.81,0002.19,0001.66
2023-05-27 03:26:00,,0831.1,5.00,0.00,30.0,28.6,00.0,38.4,31.6,28.6,0000.0,0004.59,0002.19,0001.67
2023-05-27 03:27:00,,0831.2,5.00,0.00,30.0,28.6,00.0,38.4,31.7,28.6,0000.0,0004.53,0002.16,0001.64
2023-05-27 03:28:00,,0831.3,5.00,0.00,30.1,28.6,00.0,38.4,31.7,28.6,0000.0,0004.06,0002.17,0001.64
2023-05-27 03:29:00,,0831.3,5.00,0.00,30.1,28.6,00.0,38.4,31.7,28.5,0000.0,0003.96,0002.18,0001.64
2023-05-27 03:30:00,,0831.3,5.00,0.00,30.1,28.6,00.0,38.4,31.7,28.5,0000.0,0003.89,0002.17,0001.64
2023-05-27 03:31:00,,0831.4,4.99,0.00,30.1,28.6,00.0,38.4,31.7,28.6,0000.0,0004.24,0002.21,0001.65
2023-05-27 03:32:00,,0831.4,4.99,0.00,30.1,28.6,00.0,38.4,31.7,28.6,0000.0,0005.12,0002.21,0001.65
2023-05-27 03:33:00,,0831.4,5.01,0.00,30.1,28.5,00.0,38.4,31.7,28.5,0000.0,0005.23,0002.27,0001.66
2023-05-27 03:34:00,,0831.3,5.00,0.00,30.1,28.5,00.0,38.4,31.7,28.5,0000.0,0005.41,0002.33,0001.68
2023-05-27 03:35:00,,0831.3,5.01,0.00,30.1,28.5,00.0,38.4,31.7,28.4,0000.0,0005.29,0002.34,0001.69
2023-05-27 03:36:00,,0831.3,5.01,0.00,30.1,28.5,00.0,38.4,31.7,28.4,0000.0,0005.32,0002.36,0001.71
2023-05-27 03:37:00,,0831.3,4.99,0.00,30.1,28.5,00.0,38.4,31.6,28.4,0000.0,0005.51,0002.44,0001.72
2023-05-27 03:38:00,,0831.3,4.99,0.00,30.1,28.5,00.0,38.4,31.7,28.5,0000.0,0005.67,0002.49,0001.74
2023-05-27 03:39:00,,0831.3,4.99,0.00,30.1,28.5,00.0,38.4,31.7,28.5,0000.0,0005.85,0002.55,0001.77
2023-05-27 03:40:00,,0831.3,5.00,0.00,30.1,28.5,00.0,38.5,31.6,28.6,0000.0,0005.62,0002.56,0001.77
2023-05-27 03:41:00,,0831.4,5.00,0.00,30.1,28.5,00.0,38.5,31.6,28.6,0000.0,0005.88,0002.63,0001.79
2023-05-27 03:42:00,,0831.5,4.99,0.00,30.1,28.5,00.0,38.5,31.6,28.6,0000.0,0005.84,0002.67,0001.79
2023-05-27 03:43:00,,0831.5,5.01,0.00,30.1,28.5,00.0,38.5,31.6,28.5,0000.0,0004.94,0002.70,0001.81
2023-05-27 03:44:00,,0831.6,5.01,0.00,30.1,28.5,00.0,38.5,31.7,28.5,0000.0,0004.88,0002.69,0001.82
2023-05-27 03:45:00,,0831.6,4.99,0.00,30.1,28.5,00.0,38.5,31.7,28.4,0000.0,0004.89,0002.67,0001.81
2023-05-27 03:46:00,,0831.7,4.99,0.00,30.1,28.5,00.0,38.5,31.7,28.3,0000.0,0005.94,0002.69,0001.82
2023-05-27 03:47:00,,0832.1,4.99,0.00,30.1,28.5,00.0,38.5,31.6,28.1,0000.0,0006.23,0002.70,0001.83
2023-05-27 03:48:00,,0831.8,5.00,0.00,30.1,28.4,00.0,38.5,31.6,28.0,0000.0,0006.18,0002.62,0001.81
2023-05-27 03:49:00,,0831.9,5.01,0.00,30.0,28.4,00.0,38.5,31.6,28.2,0000.0,0006.20,0002.60,0001.81
2023-05-27 03:50:00,,0831.9,5.01,0.00,30.0,28.3,00.0,38.5,31.5,28.2,0000.0,0006.10,0002.54,0001.78
2023-05-27 03:51:00,,0831.9,5.00,0.00,30.0,28.3,00.0,38.4,31.5,28.5,0000.0,0006.25,0002.53,0001.78
2023-05-27 03:52:00,,0832.0,5.00,0.00,30.0,28.2,00.0,38.4,31.5,28.8,0000.0,0006.26,0002.51,0001.79
2023-05-27 03:53:00,,0832.0,5.00,0.00,30.0,28.2,00.0,38.4,31.5,29.5,0000.0,0006.05,0002.46,0001.79
2023-05-27 03:54:00,,0832.0,5.00,0.00,29.9,28.1,00.0,38.4,31.4,29.7,0000.0,0005.95,0002.43,0001.79
2023-05-27 03:55:00,,0832.0,5.00,0.00,29.9,28.1,00.0,38.4,31.4,29.6,0000.0,0006.06,0002.44,0001.79
2023-05-27 03:56:00,,0832.0,5.00,0.00,29.9,28.0,00.0,38.4,31.4,29.2,0000.0,0006.38,0002.39,0001.78
2023-05-27 03:57:00,,0832.0,5.00,0.00,29.9,28.0,00.0,38.4,31.4,29.0,0000.0,0005.32,0002.37,0001.77
2023-05-27 03:58:00,,0832.0,4.99,0.00,29.8,28.0,00.0,38.4,31.3,29.0,0000.0,0004.97,0002.35,0001.75
2023-05-27 03:59:00,,0832.0,4.99,0.00,29.8,27.9,00.0,38.4,31.3,28.9,0000.0,0004.76,0002.30,0001.73
